Location: Antioch Church
(34.9543°N, 88.5145°W)
Time: 08:38:59
(UTC+00:00)

Cosmos 1092 Rocket - Pass Details

Date: 11 December 2019
Orbit: 954 x 996 km, 83.0° (Epoch: 26 January)

Event Time Altitude Azimuth Distance (km) Brightness Sun altitude
Exits shadow 10:48:36 - 355° (N) 3,605 6.8 -24.5°
Reaches altitude 10° 10:51:00 10° 356° (N) 2,695 6.1 -24.0°
Maximum altitude 10:57:11 80° 84° (E) 972 4.0 -22.8°
Drops below altitude 10° 11:03:17 10° 171° (S) 2,671 6.6 -21.6°
Sets 11:05:46 0° 172° (S) 3,614 7.3 -21.1°
